• în Republica Moldova
  • Lista ţărilor
  • Pe 7 zile
  • Temperatura apei
  • Hartă satelitară
  • Meteo pe hartă
  • Widget-uri
  • user-avatar
    Intrare

    Meteo pe oră la Kitzbuhel

    Astăzi, 21 Septembrie, Joi

    Timp Temperatura Precipitaţii Vânt Presiune Umiditate
    00:00 +2°C° 0 mm 2 m/s 679 mmHg 93%
    01:00 +3°C° 0 mm 2 m/s 679 mmHg 91%
    02:00 +3°C° 0,1 mm 2 m/s 679 mmHg 90%
    03:00 +2°C° 0,1 mm 2 m/s 679 mmHg 90%
    04:00 +2°C° 0,1 mm 2 m/s 679 mmHg 89%
    05:00 +3°C° 0 mm 2 m/s 679 mmHg 88%
    06:00 +3°C° 0 mm 2 m/s 679 mmHg 87%
    07:00 +5°C° 0 mm 2 m/s 679 mmHg 87%
    08:00 +7°C° 0,1 mm 1 m/s 679 mmHg 83%
    09:00 +9°C° 0,1 mm 1 m/s 679 mmHg 79%
    10:00 +11°C° 0,1 mm 1 m/s 679 mmHg 75%
    11:00 +12°C° 0 mm 1 m/s 679 mmHg 71%
    12:00 +13°C° 0 mm 2 m/s 679 mmHg 68%
    13:00 +14°C° 0 mm 2 m/s 679 mmHg 64%
    14:00 +14°C° 0 mm 2 m/s 679 mmHg 65%
    15:00 +13°C° 0 mm 2 m/s 679 mmHg 67%
    16:00 +13°C° 0 mm 2 m/s 678 mmHg 68%
    17:00 +11°C° 0 mm 1 m/s 678 mmHg 75%
    18:00 +9°C° 0 mm 1 m/s 678 mmHg 83%
    19:00 +6°C° 0 mm 1 m/s 678 mmHg 91%
    20:00 +6°C° 0 mm 1 m/s 678 mmHg 90%
    21:00 +6°C° 0 mm 1 m/s 678 mmHg 89%
    22:00 +6°C° 0 mm 1 m/s 679 mmHg 89%
    23:00 +5°C° 0 mm 1 m/s 679 mmHg 86%

    Mâine, 22 Septembrie, Vineri

    Timp Temperatura Precipitaţii Vânt Presiune Umiditate
    00:00 +5°C° 0 mm 1 m/s 679 mmHg 84%
    01:00 +4°C° 0 mm 2 m/s 679 mmHg 81%
    02:00 +4°C° 0 mm 2 m/s 679 mmHg 79%
    03:00 +4°C° 0 mm 2 m/s 678 mmHg 77%
    04:00 +4°C° 0 mm 2 m/s 678 mmHg 76%
    05:00 +6°C° 0 mm 1 m/s 679 mmHg 74%
    06:00 +6°C° 0 mm 1 m/s 679 mmHg 73%
    07:00 +7°C° 0 mm 1 m/s 679 mmHg 71%
    08:00 +10°C° 0 mm 1 m/s 679 mmHg 67%
    09:00 +12°C° 0 mm 1 m/s 680 mmHg 63%
    10:00 +15°C° 0 mm 1 m/s 680 mmHg 59%
    11:00 +16°C° 0 mm 1 m/s 680 mmHg 58%
    12:00 +18°C° 0 mm 1 m/s 680 mmHg 57%
    13:00 +18°C° 0 mm 1 m/s 680 mmHg 55%
    14:00 +18°C° 0 mm 1 m/s 680 mmHg 58%
    15:00 +16°C° 0 mm 2 m/s 680 mmHg 61%
    16:00 +16°C° 0 mm 2 m/s 680 mmHg 64%
    17:00 +14°C° 0 mm 1 m/s 680 mmHg 73%
    18:00 +11°C° 0 mm 1 m/s 680 mmHg 81%
    19:00 +9°C° 0 mm 1 m/s 679 mmHg 90%
    20:00 +9°C° 0 mm 1 m/s 680 mmHg 90%
    21:00 +8°C° 0 mm 1 m/s 680 mmHg 90%
    22:00 +7°C° 0 mm 2 m/s 680 mmHg 90%
    23:00 +8°C° 0 mm 1 m/s 680 mmHg 89%

    Poimâine, 23 Septembrie, Sâmbătă

    Timp Temperatura Precipitaţii Vânt Presiune Umiditate
    00:00 +7°C° 0 mm 1 m/s 680 mmHg 88%
    01:00 +7°C° 0 mm 1 m/s 681 mmHg 88%
    02:00 +7°C° 0 mm 1 m/s 680 mmHg 87%
    03:00 +7°C° 0 mm 1 m/s 680 mmHg 87%
    04:00 +7°C° 0 mm 1 m/s 680 mmHg 87%
    05:00 +7°C° 0 mm 1 m/s 680 mmHg 86%
    06:00 +8°C° 0 mm 1 m/s 680 mmHg 85%
    07:00 +8°C° 0 mm 1 m/s 680 mmHg 84%
    08:00 +11°C° 0 mm 1 m/s 681 mmHg 78%
    09:00 +13°C° 0 mm 1 m/s 681 mmHg 72%
    10:00 +15°C° 0 mm 1 m/s 681 mmHg 66%
    11:00 +16°C° 0 mm 1 m/s 681 mmHg 64%
    12:00 +18°C° 0 mm 1 m/s 681 mmHg 61%
    13:00 +19°C° 0 mm 1 m/s 681 mmHg 59%
    14:00 +18°C° 0 mm 1 m/s 680 mmHg 62%
    15:00 +16°C° 0 mm 2 m/s 680 mmHg 66%
    16:00 +16°C° 0 mm 2 m/s 679 mmHg 69%
    17:00 +14°C° 0 mm 1 m/s 679 mmHg 78%
    18:00 +12°C° 0 mm 1 m/s 679 mmHg 86%
    19:00 +10°C° 0 mm 1 m/s 679 mmHg 94%
    20:00 +10°C° 0 mm 1 m/s 679 mmHg 95%
    21:00 +9°C° 0 mm 1 m/s 679 mmHg 96%
    22:00 +9°C° 0 mm 1 m/s 679 mmHg 96%
    23:00 +9°C° 0 mm 1 m/s 679 mmHg 96%

    24 Septembrie, Duminică

    Timp Temperatura Precipitaţii Vânt Presiune Umiditate
    00:00 +8°C° 0 mm 1 m/s 679 mmHg 96%
    01:00 +8°C° 0 mm 1 m/s 678 mmHg 96%
    02:00 +7°C° 0 mm 1 m/s 678 mmHg 95%
    03:00 +7°C° 0 mm 1 m/s 678 mmHg 95%
    04:00 +6°C° 0 mm 2 m/s 678 mmHg 94%
    05:00 +6°C° 0 mm 2 m/s 678 mmHg 93%
    06:00 +8°C° 0 mm 1 m/s 678 mmHg 92%
    07:00 +8°C° 0 mm 1 m/s 678 mmHg 90%
    08:00 +10°C° 0 mm 1 m/s 678 mmHg 84%
    09:00 +12°C° 0 mm 1 m/s 679 mmHg 78%
    10:00 +15°C° 0 mm 1 m/s 679 mmHg 71%
    11:00 +15°C° 0,1 mm 1 m/s 679 mmHg 70%
    12:00 +15°C° 0,1 mm 1 m/s 679 mmHg 69%
    13:00 +16°C° 0,1 mm 2 m/s 678 mmHg 68%
    14:00 +15°C° 0,3 mm 2 m/s 678 mmHg 72%
    15:00 +15°C° 0,3 mm 1 m/s 678 mmHg 77%
    16:00 +14°C° 0,3 mm 1 m/s 678 mmHg 81%
    17:00 +13°C° 0,3 mm 1 m/s 678 mmHg 86%
    18:00 +11°C° 0,3 mm 1 m/s 677 mmHg 90%
    19:00 +10°C° 0,3 mm 1 m/s 677 mmHg 95%
    20:00 +9°C° 0,1 mm 1 m/s 677 mmHg 95%
    21:00 +9°C° 0,1 mm 1 m/s 677 mmHg 95%
    22:00 +9°C° 0,1 mm 1 m/s 677 mmHg 95%
    23:00 +8°C° 0 mm 1 m/s 677 mmHg 94%

    25 Septembrie, Luni

    Timp Temperatura Precipitaţii Vânt Presiune Umiditate
    00:00 +8°C° 0 mm 1 m/s 677 mmHg 93%
    01:00 +8°C° 0 mm 1 m/s 677 mmHg 92%
    02:00 +7°C° 0 mm 1 m/s 677 mmHg 91%
    03:00 +7°C° 0 mm 1 m/s 676 mmHg 90%
    04:00 +7°C° 0 mm 1 m/s 676 mmHg 89%
    05:00 +7°C° 0 mm 1 m/s 676 mmHg 88%
    06:00 +7°C° 0 mm 1 m/s 676 mmHg 87%
    07:00 +8°C° 0 mm 1 m/s 677 mmHg 87%
    08:00 +10°C° 0 mm 1 m/s 677 mmHg 79%
    09:00 +13°C° 0 mm 1 m/s 678 mmHg 72%
    10:00 +15°C° 0 mm 1 m/s 678 mmHg 65%
    11:00 +16°C° 0 mm 1 m/s 678 mmHg 63%
    12:00 +16°C° 0 mm 1 m/s 678 mmHg 61%
    13:00 +18°C° 0 mm 1 m/s 678 mmHg 59%
    14:00 +16°C° 0,3 mm 1 m/s 678 mmHg 65%
    15:00 +16°C° 0,3 mm 2 m/s 678 mmHg 71%
    16:00 +15°C° 0,3 mm 2 m/s 677 mmHg 78%
    17:00 +13°C° 0,2 mm 1 m/s 677 mmHg 83%
    18:00 +12°C° 0,2 mm 1 m/s 677 mmHg 89%
    19:00 +10°C° 0,2 mm 1 m/s 677 mmHg 94%
    20:00 +9°C° 0 mm 1 m/s 677 mmHg 94%
    21:00 +9°C° 0 mm 1 m/s 677 mmHg 93%
    22:00 +8°C° 0 mm 2 m/s 677 mmHg 93%
    23:00 +9°C° 0 mm 1 m/s 677 mmHg 92%

    26 Septembrie, Marţi

    Timp Temperatura Precipitaţii Vânt Presiune Umiditate
    00:00 +8°C° 0 mm 1 m/s 677 mmHg 92%
    01:00 +8°C° 0 mm 1 m/s 677 mmHg 92%
    02:00 +8°C° 0 mm 1 m/s 677 mmHg 92%
    03:00 +8°C° 0 mm 1 m/s 677 mmHg 92%
    04:00 +7°C° 0 mm 1 m/s 677 mmHg 91%
    05:00 +8°C° 0 mm 1 m/s 677 mmHg 91%
    06:00 +8°C° 0 mm 1 m/s 677 mmHg 90%
    07:00 +8°C° 0 mm 1 m/s 678 mmHg 89%
    08:00 +11°C° 0 mm 1 m/s 678 mmHg 80%
    09:00 +14°C° 0 mm 1 m/s 679 mmHg 71%
    10:00 +16°C° 0 mm 1 m/s 679 mmHg 62%
    11:00 +18°C° 0 mm 1 m/s 679 mmHg 59%
    12:00 +19°C° 0 mm 1 m/s 679 mmHg 56%
    13:00 +19°C° 0 mm 2 m/s 679 mmHg 53%
    14:00 +18°C° 0,1 mm 2 m/s 679 mmHg 58%
    15:00 +17°C° 0,1 mm 2 m/s 679 mmHg 63%
    16:00 +17°C° 0,1 mm 2 m/s 679 mmHg 68%
    17:00 +15°C° 0,2 mm 1 m/s 679 mmHg 76%
    18:00 +13°C° 0,2 mm 1 m/s 679 mmHg 85%
    19:00 +9°C° 0,2 mm 0 m/s 678 mmHg 94%
    20:00 +10°C° 0 mm 1 m/s 679 mmHg 94%
    21:00 +10°C° 0 mm 1 m/s 679 mmHg 94%
    22:00 +9°C° 0 mm 1 m/s 679 mmHg 94%
    23:00 +9°C° 0 mm 1 m/s 679 mmHg 94%
    Arată mai mult